TimeCDT,TemperatureF,Dew PointF,Humidity,Sea Level PressureIn,VisibilityMPH,Wind Direction,Wind SpeedMPH,Gust SpeedMPH,PrecipitationIn,Events,Conditions,WindDirDegrees,DateUTC
12:54 AM,50.0,45.0,83,29.65,10.0,NW,9.2,-,N/A,,Overcast,320,2013-10-07 05:54:00
1:54 AM,50.0,45.0,83,29.65,10.0,NW,11.5,-,N/A,,Overcast,310,2013-10-07 06:54:00
2:28 AM,48.2,44.6,87,29.65,7.0,NNW,13.8,24.2,0.00,Rain,Light Rain,330,2013-10-07 07:28:00
2:36 AM,48.2,44.6,87,29.65,7.0,NNW,11.5,-,0.00,Rain,Light Rain,330,2013-10-07 07:36:00
2:54 AM,48.0,44.1,86,29.67,10.0,NNW,13.8,19.6,0.00,,Overcast,330,2013-10-07 07:54:00
3:22 AM,48.2,42.8,82,29.65,10.0,NW,12.7,-,N/A,,Overcast,320,2013-10-07 08:22:00
3:33 AM,46.4,42.8,87,29.66,10.0,NNW,12.7,23.0,N/A,,Overcast,330,2013-10-07 08:33:00
3:54 AM,46.9,41.0,80,29.68,10.0,NW,18.4,23.0,N/A,,Overcast,320,2013-10-07 08:54:00
4:46 AM,44.6,41.0,87,29.68,10.0,NW,9.2,-,N/A,,Mostly Cloudy,320,2013-10-07 09:46:00
4:54 AM,45.0,41.0,86,29.69,10.0,NW,9.2,-,N/A,,Mostly Cloudy,320,2013-10-07 09:54:00
5:10 AM,44.6,39.2,81,29.68,10.0,NW,8.1,-,N/A,,Scattered Clouds,310,2013-10-07 10:10:00
5:54 AM,44.1,41.0,89,29.70,10.0,NW,6.9,-,N/A,,Clear,320,2013-10-07 10:54:00
6:54 AM,45.0,41.0,86,29.73,10.0,WNW,6.9,-,N/A,,Scattered Clouds,290,2013-10-07 11:54:00
7:02 AM,44.6,41.0,87,29.71,10.0,WNW,6.9,-,N/A,,Mostly Cloudy,290,2013-10-07 12:02:00
7:54 AM,46.9,42.1,83,29.75,10.0,WNW,6.9,-,N/A,,Overcast,300,2013-10-07 12:54:00
8:42 AM,48.2,42.8,82,29.74,10.0,WNW,4.6,-,N/A,,Scattered Clouds,300,2013-10-07 13:42:00
8:54 AM,48.9,42.1,77,29.76,10.0,WNW,6.9,-,N/A,,Clear,290,2013-10-07 13:54:00
9:54 AM,53.1,41.0,64,29.77,10.0,NW,13.8,21.9,N/A,,Clear,310,2013-10-07 14:54:00
10:54 AM,55.9,41.0,57,29.79,10.0,NW,11.5,21.9,N/A,,Clear,310,2013-10-07 15:54:00
11:54 AM,57.0,39.9,53,29.81,10.0,NW,17.3,27.6,N/A,,Mostly Cloudy,320,2013-10-07 16:54:00
12:54 PM,57.9,39.0,49,29.82,10.0,NNW,18.4,24.2,N/A,,Mostly Cloudy,330,2013-10-07 17:54:00
1:54 PM,60.1,37.9,44,29.83,10.0,WNW,17.3,24.2,N/A,,Scattered Clouds,300,2013-10-07 18:54:00
2:54 PM,60.1,37.0,42,29.87,10.0,WNW,11.5,25.3,N/A,,Partly Cloudy,300,2013-10-07 19:54:00
3:54 PM,60.1,36.0,41,29.88,10.0,NW,17.3,23.0,N/A,,Scattered Clouds,310,2013-10-07 20:54:00
4:54 PM,57.9,34.0,41,29.91,10.0,NW,12.7,20.7,N/A,,Clear,310,2013-10-07 21:54:00
5:54 PM,55.0,35.1,47,29.95,10.0,NW,11.5,-,N/A,,Clear,320,2013-10-07 22:54:00
6:54 PM,48.0,37.0,66,29.99,10.0,NNW,5.8,-,N/A,,Clear,340,2013-10-07 23:54:00
7:54 PM,43.0,36.0,76,30.01,10.0,Calm,Calm,-,N/A,,Clear,0,2013-10-08 00:54:00
8:54 PM,41.0,36.0,82,30.03,10.0,Calm,Calm,-,N/A,,Clear,0,2013-10-08 01:54:00
9:54 PM,37.9,34.0,86,30.05,10.0,Calm,Calm,-,N/A,,Clear,0,2013-10-08 02:54:00
10:54 PM,37.9,34.0,86,30.06,10.0,Calm,Calm,-,N/A,,Clear,0,2013-10-08 03:54:00
11:54 PM,36.0,33.1,89,30.06,10.0,Calm,Calm,-,N/A,,Clear,0,2013-10-08 04:54:00